contact:dominique.lefevre@mio.osupytheas.fr, maurice.libes@osupytheas.fr, didier.mallarino@osupytheas.fr
Project:EMSO http://www.emso-fr.org/EMSO-France
Depth: 2436.0 m
Title:EMSO Ligure Ouest : Data MII capteur MICROCAT
DateTime_Computer,Latitude,Longitude,Temperature,Conductivity,Pressure,DateTime_Instrument
DateTime_Computer,Latitude,Longitude,degC,S m-1,dbar,DateTime_Instrument
2022-12-03T00:01:24Z,42.805,6.029,13.3025,4.60087,2470.567,2022-12-03T02:03:23Z
2022-12-03T00:04:27Z,42.805,6.029,13.3026,4.60079,2470.591,2022-12-03T02:06:26Z
2022-12-03T00:07:30Z,42.805,6.029,13.3030,4.60078,2470.614,2022-12-03T02:09:29Z
2022-12-03T00:10:33Z,42.805,6.029,13.3028,4.60074,2470.591,2022-12-03T02:12:33Z
2022-12-03T00:13:36Z,42.805,6.029,13.3026,4.60077,2470.614,2022-12-03T02:15:36Z
2022-12-03T00:16:39Z,42.805,6.029,13.3015,4.60071,2470.577,2022-12-03T02:18:39Z
2022-12-03T00:19:42Z,42.805,6.029,13.3028,4.60076,2470.591,2022-12-03T02:21:42Z
2022-12-03T00:22:45Z,42.805,6.029,13.3029,4.60075,2470.614,2022-12-03T02:24:45Z
2022-12-03T00:25:48Z,42.805,6.029,13.3029,4.60081,2470.614,2022-12-03T02:27:48Z
2022-12-03T00:28:51Z,42.805,6.029,13.3031,4.60072,2470.614,2022-12-03T02:30:51Z
2022-12-03T00:31:54Z,42.805,6.029,13.3031,4.60076,2470.614,2022-12-03T02:33:54Z
2022-12-03T00:34:57Z,42.805,6.029,13.3030,4.60072,2470.591,2022-12-03T02:36:57Z
2022-12-03T00:38:00Z,42.805,6.029,13.3025,4.60072,2470.6,2022-12-03T02:40:00Z
2022-12-03T00:41:04Z,42.805,6.029,13.3026,4.60086,2470.614,2022-12-03T02:43:03Z
2022-12-03T00:44:07Z,42.805,6.029,13.3021,4.60069,2470.637,2022-12-03T02:46:06Z
2022-12-03T00:47:10Z,42.805,6.029,13.3020,4.60071,2470.591,2022-12-03T02:49:09Z
2022-12-03T00:50:13Z,42.805,6.029,13.3032,4.60077,2470.646,2022-12-03T02:52:12Z
2022-12-03T00:53:16Z,42.805,6.029,13.3035,4.60077,2470.624,2022-12-03T02:55:16Z
2022-12-03T00:56:19Z,42.805,6.029,13.3026,4.60086,2470.6,2022-12-03T02:58:19Z
2022-12-03T00:59:22Z,42.805,6.029,13.3031,4.60087,2470.6,2022-12-03T03:01:22Z
2022-12-03T01:02:25Z,42.805,6.029,13.3028,4.60077,2470.637,2022-12-03T03:04:25Z
2022-12-03T01:05:28Z,42.805,6.029,13.3026,4.60080,2470.614,2022-12-03T03:07:28Z
2022-12-03T01:08:31Z,42.805,6.029,13.3027,4.60082,2470.637,2022-12-03T03:10:31Z
2022-12-03T01:11:34Z,42.805,6.029,13.3028,4.60093,2470.624,2022-12-03T03:13:34Z
2022-12-03T01:14:37Z,42.805,6.029,13.3029,4.60087,2470.591,2022-12-03T03:16:37Z
2022-12-03T01:17:40Z,42.805,6.029,13.3020,4.60081,2470.624,2022-12-03T03:19:40Z
2022-12-03T01:20:43Z,42.805,6.029,13.3026,4.60086,2470.637,2022-12-03T03:22:43Z
2022-12-03T01:23:46Z,42.805,6.029,13.3024,4.60080,2470.637,2022-12-03T03:25:46Z
2022-12-03T01:26:50Z,42.805,6.029,13.3029,4.60081,2470.6,2022-12-03T03:28:49Z
2022-12-03T01:29:53Z,42.805,6.029,13.3026,4.60085,2470.624,2022-12-03T03:31:52Z
2022-12-03T01:32:56Z,42.805,6.029,13.3032,4.60079,2470.646,2022-12-03T03:34:55Z
2022-12-03T01:35:59Z,42.805,6.029,13.3026,4.60088,2470.61,2022-12-03T03:37:59Z
2022-12-03T01:39:02Z,42.805,6.029,13.3024,4.60075,2470.661,2022-12-03T03:41:02Z
2022-12-03T01:42:05Z,42.805,6.029,13.3022,4.60095,2470.624,2022-12-03T03:44:05Z
2022-12-03T01:45:08Z,42.805,6.029,13.3025,4.60087,2470.646,2022-12-03T03:47:08Z
2022-12-03T01:48:11Z,42.805,6.029,13.3021,4.60095,2470.661,2022-12-03T03:50:11Z
2022-12-03T01:51:14Z,42.805,6.029,13.3025,4.60078,2470.67,2022-12-03T03:53:14Z
2022-12-03T01:54:17Z,42.805,6.029,13.3027,4.60087,2470.646,2022-12-03T03:56:17Z
2022-12-03T01:57:20Z,42.805,6.029,13.3029,4.60089,2470.646,2022-12-03T03:59:20Z
2022-12-03T02:00:23Z,42.805,6.029,13.3020,4.60088,2470.624,2022-12-03T04:02:23Z
2022-12-03T02:03:26Z,42.805,6.029,13.3023,4.60078,2470.646,2022-12-03T04:05:26Z
2022-12-03T02:06:29Z,42.805,6.029,13.3021,4.60085,2470.67,2022-12-03T04:08:29Z
2022-12-03T02:09:32Z,42.805,6.029,13.3028,4.60083,2470.67,2022-12-03T04:11:32Z
2022-12-03T02:12:36Z,42.805,6.029,13.3031,4.60084,2470.661,2022-12-03T04:14:35Z
2022-12-03T02:15:39Z,42.805,6.029,13.3025,4.60081,2470.684,2022-12-03T04:17:38Z
2022-12-03T02:18:42Z,42.805,6.029,13.3022,4.60078,2470.684,2022-12-03T04:20:41Z
2022-12-03T02:21:45Z,42.805,6.029,13.3019,4.60077,2470.661,2022-12-03T04:23:45Z
2022-12-03T02:24:48Z,42.805,6.029,13.3024,4.60091,2470.67,2022-12-03T04:26:48Z
2022-12-03T02:27:51Z,42.805,6.029,13.3026,4.60089,2470.661,2022-12-03T04:29:51Z
2022-12-03T02:30:54Z,42.805,6.029,13.3027,4.60086,2470.693,2022-12-03T04:32:54Z
2022-12-03T02:33:57Z,42.805,6.029,13.3025,4.60092,2470.693,2022-12-03T04:35:57Z
2022-12-03T02:37:00Z,42.805,6.029,13.3018,4.60079,2470.661,2022-12-03T04:39:00Z
2022-12-03T02:40:03Z,42.805,6.029,13.3020,4.60084,2470.661,2022-12-03T04:42:03Z
2022-12-03T02:43:06Z,42.805,6.029,13.3026,4.60078,2470.693,2022-12-03T04:45:06Z
2022-12-03T02:46:09Z,42.805,6.029,13.3019,4.60074,2470.684,2022-12-03T04:48:09Z
2022-12-03T02:49:12Z,42.805,6.029,13.3025,4.60083,2470.646,2022-12-03T04:51:12Z
2022-12-03T02:52:15Z,42.805,6.029,13.3034,4.60091,2470.707,2022-12-03T04:54:15Z
2022-12-03T02:55:18Z,42.805,6.029,13.3024,4.60091,2470.646,2022-12-03T04:57:18Z
2022-12-03T02:58:22Z,42.805,6.029,13.3029,4.60096,2470.67,2022-12-03T05:00:21Z
2022-12-03T03:01:25Z,42.805,6.029,13.3025,4.60088,2470.67,2022-12-03T05:03:24Z
2022-12-03T03:04:28Z,42.805,6.029,13.3023,4.60084,2470.684,2022-12-03T05:06:27Z
2022-12-03T03:07:31Z,42.805,6.029,13.3024,4.60078,2470.693,2022-12-03T05:09:31Z
2022-12-03T03:10:34Z,42.805,6.029,13.3027,4.60082,2470.661,2022-12-03T05:12:34Z
2022-12-03T03:13:37Z,42.805,6.029,13.3019,4.60077,2470.67,2022-12-03T05:15:37Z
2022-12-03T03:16:40Z,42.805,6.029,13.3023,4.60076,2470.67,2022-12-03T05:18:40Z
2022-12-03T03:19:43Z,42.805,6.029,13.3018,4.60080,2470.67,2022-12-03T05:21:43Z
2022-12-03T03:22:46Z,42.805,6.029,13.3025,4.60086,2470.684,2022-12-03T05:24:46Z
2022-12-03T03:25:49Z,42.805,6.029,13.3023,4.60079,2470.707,2022-12-03T05:27:49Z
2022-12-03T03:28:52Z,42.805,6.029,13.3021,4.60076,2470.693,2022-12-03T05:30:52Z
2022-12-03T03:31:55Z,42.805,6.029,13.3019,4.60085,2470.684,2022-12-03T05:33:55Z
2022-12-03T03:34:58Z,42.805,6.029,13.3023,4.60077,2470.67,2022-12-03T05:36:58Z
2022-12-03T03:38:02Z,42.805,6.029,13.3022,4.60083,2470.67,2022-12-03T05:40:01Z
2022-12-03T03:41:05Z,42.805,6.029,13.3025,4.60085,2470.693,2022-12-03T05:43:04Z
2022-12-03T03:44:08Z,42.805,6.029,13.3016,4.60072,2470.684,2022-12-03T05:46:07Z
2022-12-03T03:47:11Z,42.805,6.029,13.3024,4.60084,2470.684,2022-12-03T05:49:10Z
2022-12-03T03:50:14Z,42.805,6.029,13.3018,4.60077,2470.67,2022-12-03T05:52:14Z
2022-12-03T03:53:17Z,42.805,6.029,13.3028,4.60086,2470.693,2022-12-03T05:55:17Z
2022-12-03T03:56:20Z,42.805,6.029,13.3021,4.60077,2470.67,2022-12-03T05:58:20Z
2022-12-03T03:59:23Z,42.805,6.029,13.3024,4.60079,2470.684,2022-12-03T06:01:23Z
2022-12-03T04:02:26Z,42.805,6.029,13.3018,4.60076,2470.67,2022-12-03T06:04:26Z
2022-12-03T04:05:29Z,42.805,6.029,13.3022,4.60075,2470.661,2022-12-03T06:07:29Z
2022-12-03T04:08:32Z,42.805,6.029,13.3024,4.60081,2470.67,2022-12-03T06:10:32Z
2022-12-03T04:11:35Z,42.805,6.029,13.3020,4.60081,2470.684,2022-12-03T06:13:35Z
2022-12-03T04:14:38Z,42.805,6.029,13.3019,4.60077,2470.693,2022-12-03T06:16:38Z
2022-12-03T04:17:41Z,42.805,6.029,13.3019,4.60076,2470.67,2022-12-03T06:19:41Z
2022-12-03T04:20:45Z,42.805,6.029,13.3019,4.60078,2470.684,2022-12-03T06:22:44Z
2022-12-03T04:23:48Z,42.805,6.029,13.3020,4.60081,2470.67,2022-12-03T06:25:47Z
2022-12-03T04:26:51Z,42.805,6.029,13.3021,4.60084,2470.684,2022-12-03T06:28:50Z
2022-12-03T04:29:54Z,42.805,6.029,13.3025,4.60087,2470.67,2022-12-03T06:31:53Z
2022-12-03T04:32:57Z,42.805,6.029,13.3021,4.60085,2470.67,2022-12-03T06:34:57Z
2022-12-03T04:36:00Z,42.805,6.029,13.3022,4.60084,2470.67,2022-12-03T06:38:00Z
2022-12-03T04:39:03Z,42.805,6.029,13.3019,4.60079,2470.646,2022-12-03T06:41:03Z
2022-12-03T04:42:06Z,42.805,6.029,13.3020,4.60078,2470.693,2022-12-03T06:44:06Z
2022-12-03T04:45:09Z,42.805,6.029,13.3026,4.60079,2470.67,2022-12-03T06:47:09Z
2022-12-03T04:48:12Z,42.805,6.029,13.3018,4.60075,2470.684,2022-12-03T06:50:12Z
2022-12-03T04:51:15Z,42.805,6.029,13.3024,4.60077,2470.693,2022-12-03T06:53:15Z
2022-12-03T04:54:18Z,42.805,6.029,13.3020,4.60084,2470.693,2022-12-03T06:56:18Z
2022-12-03T04:57:21Z,42.805,6.029,13.3020,4.60074,2470.646,2022-12-03T06:59:21Z
2022-12-03T05:00:24Z,42.805,6.029,13.3020,4.60082,2470.633,2022-12-03T07:02:24Z
2022-12-03T05:03:28Z,42.805,6.029,13.3021,4.60079,2470.661,2022-12-03T07:05:27Z
2022-12-03T05:06:31Z,42.805,6.029,13.3023,4.60081,2470.637,2022-12-03T07:08:30Z
2022-12-03T05:09:34Z,42.805,6.029,13.3022,4.60077,2470.646,2022-12-03T07:11:33Z
2022-12-03T05:12:37Z,42.805,6.029,13.3020,4.60078,2470.684,2022-12-03T07:14:36Z
2022-12-03T05:15:40Z,42.805,6.029,13.3021,4.60078,2470.6,2022-12-03T07:17:40Z
2022-12-03T05:18:43Z,42.805,6.029,13.3025,4.60080,2470.67,2022-12-03T07:20:43Z
2022-12-03T05:21:46Z,42.805,6.029,13.3021,4.60084,2470.707,2022-12-03T07:23:46Z
2022-12-03T05:24:49Z,42.805,6.029,13.3021,4.60074,2470.684,2022-12-03T07:26:49Z
2022-12-03T05:27:52Z,42.805,6.029,13.3023,4.60079,2470.661,2022-12-03T07:29:52Z
2022-12-03T05:30:55Z,42.805,6.029,13.3025,4.60091,2470.661,2022-12-03T07:32:55Z
2022-12-03T05:33:58Z,42.805,6.029,13.3022,4.60081,2470.67,2022-12-03T07:35:58Z
2022-12-03T05:37:01Z,42.805,6.029,13.3023,4.60081,2470.661,2022-12-03T07:39:01Z
2022-12-03T05:40:04Z,42.805,6.029,13.3023,4.60084,2470.637,2022-12-03T07:42:04Z
2022-12-03T05:43:07Z,42.805,6.029,13.3026,4.60087,2470.624,2022-12-03T07:45:07Z
2022-12-03T05:46:10Z,42.805,6.029,13.3021,4.60080,2470.67,2022-12-03T07:48:10Z
2022-12-03T05:49:14Z,42.805,6.029,13.3021,4.60084,2470.67,2022-12-03T07:51:13Z
2022-12-03T05:52:17Z,42.805,6.029,13.3019,4.60079,2470.679,2022-12-03T07:54:16Z
2022-12-03T05:55:20Z,42.805,6.029,13.3023,4.60080,2470.646,2022-12-03T07:57:19Z
2022-12-03T05:58:23Z,42.805,6.029,13.3024,4.60084,2470.661,2022-12-03T08:00:23Z
2022-12-03T06:01:26Z,42.805,6.029,13.3023,4.60079,2470.646,2022-12-03T08:03:26Z
2022-12-03T06:04:29Z,42.805,6.029,13.3020,4.60082,2470.661,2022-12-03T08:06:29Z
2022-12-03T06:07:32Z,42.805,6.029,13.3021,4.60081,2470.67,2022-12-03T08:09:32Z
2022-12-03T06:10:35Z,42.805,6.029,13.3026,4.60094,2470.646,2022-12-03T08:12:35Z
2022-12-03T06:13:38Z,42.805,6.029,13.3021,4.60072,2470.646,2022-12-03T08:15:38Z
2022-12-03T06:16:41Z,42.805,6.029,13.3024,4.60075,2470.67,2022-12-03T08:18:41Z
2022-12-03T06:19:44Z,42.805,6.029,13.3024,4.60078,2470.661,2022-12-03T08:21:44Z
2022-12-03T06:22:47Z,42.805,6.029,13.3022,4.60079,2470.67,2022-12-03T08:24:47Z
2022-12-03T06:25:50Z,42.805,6.029,13.3023,4.60072,2470.624,2022-12-03T08:27:50Z
2022-12-03T06:28:53Z,42.805,6.029,13.3019,4.60081,2470.646,2022-12-03T08:30:53Z
2022-12-03T06:31:56Z,42.805,6.029,13.3022,4.60083,2470.661,2022-12-03T08:33:56Z
2022-12-03T06:35:00Z,42.805,6.029,13.3019,4.60074,2470.684,2022-12-03T08:36:59Z
2022-12-03T06:38:03Z,42.805,6.029,13.3018,4.60070,2470.646,2022-12-03T08:40:02Z
2022-12-03T06:41:06Z,42.805,6.029,13.3024,4.60078,2470.646,2022-12-03T08:43:05Z
2022-12-03T06:44:09Z,42.805,6.029,13.3022,4.60081,2470.67,2022-12-03T08:46:09Z
2022-12-03T06:47:12Z,42.805,6.029,13.3023,4.60082,2470.624,2022-12-03T08:49:12Z
2022-12-03T06:50:15Z,42.805,6.029,13.3025,4.60079,2470.624,2022-12-03T08:52:15Z
2022-12-03T06:53:18Z,42.805,6.029,13.3021,4.60077,2470.624,2022-12-03T08:55:18Z
2022-12-03T06:56:21Z,42.805,6.029,13.3024,4.60080,2470.684,2022-12-03T08:58:21Z
2022-12-03T06:59:24Z,42.805,6.029,13.3025,4.60087,2470.661,2022-12-03T09:01:24Z
2022-12-03T07:02:27Z,42.805,6.029,13.3019,4.60076,2470.624,2022-12-03T09:04:27Z
2022-12-03T07:05:30Z,42.805,6.029,13.3026,4.60086,2470.646,2022-12-03T09:07:30Z
2022-12-03T07:08:33Z,42.805,6.029,13.3027,4.60096,2470.661,2022-12-03T09:10:33Z
2022-12-03T07:11:36Z,42.805,6.029,13.3025,4.60085,2470.67,2022-12-03T09:13:36Z
2022-12-03T07:14:39Z,42.805,6.029,13.3022,4.60073,2470.661,2022-12-03T09:16:39Z
2022-12-03T07:17:42Z,42.805,6.029,13.3021,4.60083,2470.637,2022-12-03T09:19:42Z
2022-12-03T07:20:46Z,42.805,6.029,13.3025,4.60086,2470.624,2022-12-03T09:22:45Z
2022-12-03T07:23:49Z,42.805,6.029,13.3022,4.60084,2470.646,2022-12-03T09:25:48Z
2022-12-03T07:26:52Z,42.805,6.029,13.3026,4.60082,2470.646,2022-12-03T09:28:51Z
2022-12-03T07:29:55Z,42.805,6.029,13.3024,4.60085,2470.646,2022-12-03T09:31:55Z
2022-12-03T07:32:58Z,42.805,6.029,13.3020,4.60078,2470.661,2022-12-03T09:34:58Z
2022-12-03T07:36:01Z,42.805,6.029,13.3017,4.60075,2470.646,2022-12-03T09:38:01Z
2022-12-03T07:39:04Z,42.805,6.029,13.3021,4.60081,2470.624,2022-12-03T09:41:04Z
2022-12-03T07:42:07Z,42.805,6.029,13.3019,4.60075,2470.646,2022-12-03T09:44:07Z
2022-12-03T07:45:10Z,42.805,6.029,13.3021,4.60076,2470.6,2022-12-03T09:47:10Z
2022-12-03T07:48:13Z,42.805,6.029,13.3021,4.60079,2470.67,2022-12-03T09:50:13Z
2022-12-03T07:51:16Z,42.805,6.029,13.3024,4.60089,2470.646,2022-12-03T09:53:16Z
2022-12-03T07:54:19Z,42.805,6.029,13.3020,4.60081,2470.646,2022-12-03T09:56:19Z
2022-12-03T07:57:22Z,42.805,6.029,13.3017,4.60079,2470.624,2022-12-03T09:59:22Z
2022-12-03T08:00:25Z,42.805,6.029,13.3023,4.60081,2470.646,2022-12-03T10:02:25Z
2022-12-03T08:03:29Z,42.805,6.029,13.3021,4.60074,2470.646,2022-12-03T10:05:28Z
2022-12-03T08:06:32Z,42.805,6.029,13.3023,4.60076,2470.646,2022-12-03T10:08:31Z
2022-12-03T08:09:35Z,42.805,6.029,13.3017,4.60084,2470.624,2022-12-03T10:11:34Z
2022-12-03T08:12:38Z,42.805,6.029,13.3023,4.60075,2470.646,2022-12-03T10:14:37Z
2022-12-03T08:15:41Z,42.805,6.029,13.3019,4.60077,2470.624,2022-12-03T10:17:41Z
2022-12-03T08:18:44Z,42.805,6.029,13.3024,4.60080,2470.684,2022-12-03T10:20:44Z
2022-12-03T08:21:47Z,42.805,6.029,13.3024,4.60075,2470.614,2022-12-03T10:23:47Z
2022-12-03T08:24:50Z,42.805,6.029,13.3015,4.60072,2470.661,2022-12-03T10:26:50Z
2022-12-03T08:27:53Z,42.805,6.029,13.3021,4.60075,2470.624,2022-12-03T10:29:53Z
2022-12-03T08:30:56Z,42.805,6.029,13.3019,4.60071,2470.661,2022-12-03T10:32:56Z
2022-12-03T08:33:59Z,42.805,6.029,13.3019,4.60078,2470.661,2022-12-03T10:35:59Z
2022-12-03T08:37:02Z,42.805,6.029,13.3023,4.60075,2470.661,2022-12-03T10:39:02Z
2022-12-03T08:40:05Z,42.805,6.029,13.3019,4.60077,2470.6,2022-12-03T10:42:05Z
2022-12-03T08:43:08Z,42.805,6.029,13.3019,4.60074,2470.614,2022-12-03T10:45:08Z
2022-12-03T08:46:12Z,42.805,6.029,13.3026,4.60079,2470.624,2022-12-03T10:48:11Z
2022-12-03T08:49:15Z,42.805,6.029,13.3021,4.60079,2470.6,2022-12-03T10:51:14Z
2022-12-03T08:52:18Z,42.805,6.029,13.3018,4.60079,2470.624,2022-12-03T10:54:17Z
2022-12-03T08:55:21Z,42.805,6.029,13.3020,4.60070,2470.624,2022-12-03T10:57:20Z
2022-12-03T08:58:24Z,42.805,6.029,13.3018,4.60069,2470.637,2022-12-03T11:00:24Z
2022-12-03T09:01:27Z,42.805,6.029,13.3019,4.60079,2470.577,2022-12-03T11:03:27Z
2022-12-03T09:04:30Z,42.805,6.029,13.3014,4.60072,2470.614,2022-12-03T11:06:30Z
2022-12-03T09:07:33Z,42.805,6.029,13.3020,4.60079,2470.637,2022-12-03T11:09:33Z
2022-12-03T09:10:36Z,42.805,6.029,13.3021,4.60077,2470.637,2022-12-03T11:12:36Z
2022-12-03T09:13:39Z,42.805,6.029,13.3017,4.60078,2470.614,2022-12-03T11:15:39Z
2022-12-03T09:16:42Z,42.805,6.029,13.3017,4.60077,2470.624,2022-12-03T11:18:42Z
2022-12-03T09:19:45Z,42.805,6.029,13.3021,4.60085,2470.6,2022-12-03T11:21:45Z
2022-12-03T09:22:48Z,42.805,6.029,13.3020,4.60079,2470.624,2022-12-03T11:24:48Z
2022-12-03T09:25:51Z,42.805,6.029,13.3018,4.60073,2470.614,2022-12-03T11:27:51Z
2022-12-03T09:28:55Z,42.805,6.029,13.3017,4.60074,2470.614,2022-12-03T11:30:54Z
2022-12-03T09:31:58Z,42.805,6.029,13.3019,4.60072,2470.6,2022-12-03T11:33:57Z
2022-12-03T09:35:01Z,42.805,6.029,13.3020,4.60078,2470.637,2022-12-03T11:37:00Z
2022-12-03T09:38:04Z,42.805,6.029,13.3019,4.60074,2470.6,2022-12-03T11:40:04Z
2022-12-03T09:41:07Z,42.805,6.029,13.3021,4.60077,2470.6,2022-12-03T11:43:07Z
2022-12-03T09:44:10Z,42.805,6.029,13.3023,4.60081,2470.577,2022-12-03T11:46:10Z
2022-12-03T09:47:13Z,42.805,6.029,13.3021,4.60077,2470.651,2022-12-03T11:49:13Z
2022-12-03T09:50:16Z,42.805,6.029,13.3018,4.60079,2470.624,2022-12-03T11:52:16Z
2022-12-03T09:53:19Z,42.805,6.029,13.3021,4.60079,2470.637,2022-12-03T11:55:19Z
2022-12-03T09:56:22Z,42.805,6.029,13.3021,4.60080,2470.6,2022-12-03T11:58:22Z
2022-12-03T09:59:25Z,42.805,6.029,13.3018,4.60086,2470.624,2022-12-03T12:01:25Z
2022-12-03T10:02:28Z,42.805,6.029,13.3023,4.60074,2470.6,2022-12-03T12:04:28Z
2022-12-03T10:05:31Z,42.805,6.029,13.3022,4.60080,2470.637,2022-12-03T12:07:31Z
2022-12-03T10:08:35Z,42.805,6.029,13.3023,4.60081,2470.624,2022-12-03T12:10:34Z
2022-12-03T10:11:38Z,42.805,6.029,13.3019,4.60074,2470.637,2022-12-03T12:13:37Z
2022-12-03T10:14:41Z,42.805,6.029,13.3021,4.60078,2470.6,2022-12-03T12:16:40Z
2022-12-03T10:17:44Z,42.805,6.029,13.3015,4.60072,2470.637,2022-12-03T12:19:44Z
2022-12-03T10:20:47Z,42.805,6.029,13.3025,4.60079,2470.637,2022-12-03T12:22:47Z
2022-12-03T10:23:50Z,42.805,6.029,13.3019,4.60078,2470.646,2022-12-03T12:25:50Z
2022-12-03T10:26:53Z,42.805,6.029,13.3021,4.60080,2470.6,2022-12-03T12:28:53Z
2022-12-03T10:29:56Z,42.805,6.029,13.3022,4.60074,2470.591,2022-12-03T12:31:56Z
2022-12-03T10:32:59Z,42.805,6.029,13.3021,4.60079,2470.614,2022-12-03T12:34:59Z
2022-12-03T10:36:02Z,42.805,6.029,13.3020,4.60074,2470.614,2022-12-03T12:38:02Z
2022-12-03T10:39:05Z,42.805,6.029,13.3026,4.60080,2470.591,2022-12-03T12:41:05Z
2022-12-03T10:42:08Z,42.805,6.029,13.3023,4.60080,2470.6,2022-12-03T12:44:08Z
2022-12-03T10:45:11Z,42.805,6.029,13.3019,4.60083,2470.614,2022-12-03T12:47:11Z
2022-12-03T10:48:15Z,42.805,6.029,13.3023,4.60083,2470.614,2022-12-03T12:50:14Z
2022-12-03T10:51:18Z,42.805,6.029,13.3020,4.60074,2470.6,2022-12-03T12:53:17Z
2022-12-03T10:54:21Z,42.805,6.029,13.3024,4.60077,2470.624,2022-12-03T12:56:20Z
2022-12-03T10:57:24Z,42.805,6.029,13.3018,4.60079,2470.624,2022-12-03T12:59:23Z
2022-12-03T11:00:27Z,42.805,6.029,13.3026,4.60079,2470.661,2022-12-03T13:02:27Z
2022-12-03T11:03:30Z,42.805,6.029,13.3024,4.60079,2470.646,2022-12-03T13:05:30Z
2022-12-03T11:06:33Z,42.805,6.029,13.3019,4.60078,2470.6,2022-12-03T13:08:33Z
2022-12-03T11:09:36Z,42.805,6.029,13.3026,4.60077,2470.614,2022-12-03T13:11:36Z
2022-12-03T11:12:39Z,42.805,6.029,13.3024,4.60077,2470.637,2022-12-03T13:14:39Z
2022-12-03T11:15:42Z,42.805,6.029,13.3022,4.60078,2470.624,2022-12-03T13:17:42Z
2022-12-03T11:18:45Z,42.805,6.029,13.3023,4.60077,2470.646,2022-12-03T13:20:45Z
2022-12-03T11:21:48Z,42.805,6.029,13.3024,4.60082,2470.6,2022-12-03T13:23:48Z
2022-12-03T11:24:51Z,42.805,6.029,13.3021,4.60076,2470.624,2022-12-03T13:26:51Z
2022-12-03T11:27:54Z,42.805,6.029,13.3019,4.60076,2470.637,2022-12-03T13:29:54Z
2022-12-03T11:30:58Z,42.805,6.029,13.3016,4.60072,2470.6,2022-12-03T13:32:57Z
2022-12-03T11:34:01Z,42.805,6.029,13.3021,4.60074,2470.661,2022-12-03T13:36:00Z
2022-12-03T11:37:04Z,42.805,6.029,13.3024,4.60088,2470.661,2022-12-03T13:39:03Z
2022-12-03T11:40:07Z,42.805,6.029,13.3017,4.60081,2470.646,2022-12-03T13:42:07Z
2022-12-03T11:43:10Z,42.805,6.029,13.3023,4.60075,2470.624,2022-12-03T13:45:10Z
2022-12-03T11:46:13Z,42.805,6.029,13.3025,4.60074,2470.684,2022-12-03T13:48:13Z
2022-12-03T11:49:16Z,42.805,6.029,13.3021,4.60085,2470.661,2022-12-03T13:51:16Z
2022-12-03T11:52:19Z,42.805,6.029,13.3023,4.60070,2470.661,2022-12-03T13:54:19Z
2022-12-03T11:55:22Z,42.805,6.029,13.3019,4.60072,2470.684,2022-12-03T13:57:22Z
2022-12-03T11:58:25Z,42.805,6.029,13.3024,4.60078,2470.646,2022-12-03T14:00:25Z
2022-12-03T12:01:28Z,42.805,6.029,13.3022,4.60074,2470.637,2022-12-03T14:03:28Z
2022-12-03T12:04:31Z,42.805,6.029,13.3025,4.60076,2470.637,2022-12-03T14:06:31Z
2022-12-03T12:07:34Z,42.805,6.029,13.3021,4.60078,2470.67,2022-12-03T14:09:34Z
2022-12-03T12:10:38Z,42.805,6.029,13.3017,4.60077,2470.646,2022-12-03T14:12:37Z
2022-12-03T12:13:41Z,42.805,6.029,13.3018,4.60078,2470.661,2022-12-03T14:15:40Z
2022-12-03T12:16:44Z,42.805,6.029,13.3019,4.60070,2470.646,2022-12-03T14:18:43Z
2022-12-03T12:19:47Z,42.805,6.029,13.3019,4.60072,2470.656,2022-12-03T14:21:46Z
2022-12-03T12:22:50Z,42.805,6.029,13.3016,4.60071,2470.67,2022-12-03T14:24:50Z
2022-12-03T12:25:53Z,42.805,6.029,13.3015,4.60074,2470.646,2022-12-03T14:27:53Z
2022-12-03T12:28:56Z,42.805,6.029,13.3018,4.60077,2470.684,2022-12-03T14:30:56Z
2022-12-03T12:31:59Z,42.805,6.029,13.3019,4.60075,2470.707,2022-12-03T14:33:59Z
2022-12-03T12:35:02Z,42.805,6.029,13.3019,4.60072,2470.661,2022-12-03T14:37:02Z
2022-12-03T12:38:05Z,42.805,6.029,13.3022,4.60076,2470.67,2022-12-03T14:40:05Z
2022-12-03T12:41:08Z,42.805,6.029,13.3024,4.60074,2470.684,2022-12-03T14:43:08Z
2022-12-03T12:44:11Z,42.805,6.029,13.3024,4.60080,2470.67,2022-12-03T14:46:11Z
2022-12-03T12:47:14Z,42.805,6.029,13.3022,4.60078,2470.684,2022-12-03T14:49:14Z
2022-12-03T12:50:17Z,42.805,6.029,13.3015,4.60074,2470.684,2022-12-03T14:52:17Z
2022-12-03T12:53:21Z,42.805,6.029,13.3018,4.60072,2470.67,2022-12-03T14:55:20Z
2022-12-03T12:56:24Z,42.805,6.029,13.3017,4.60070,2470.693,2022-12-03T14:58:23Z
2022-12-03T12:59:27Z,42.805,6.029,13.3021,4.60072,2470.684,2022-12-03T15:01:27Z
2022-12-03T13:02:30Z,42.805,6.029,13.3018,4.60070,2470.693,2022-12-03T15:04:30Z
2022-12-03T13:05:33Z,42.805,6.029,13.3019,4.60069,2470.717,2022-12-03T15:07:33Z
2022-12-03T13:08:36Z,42.805,6.029,13.3021,4.60075,2470.67,2022-12-03T15:10:36Z
2022-12-03T13:11:39Z,42.805,6.029,13.3021,4.60074,2470.646,2022-12-03T15:13:39Z
2022-12-03T13:14:42Z,42.805,6.029,13.3024,4.60084,2470.661,2022-12-03T15:16:42Z
2022-12-03T13:17:45Z,42.805,6.029,13.3024,4.60073,2470.67,2022-12-03T15:19:45Z
2022-12-03T13:20:48Z,42.805,6.029,13.3017,4.60072,2470.707,2022-12-03T15:22:48Z
2022-12-03T13:23:51Z,42.805,6.029,13.3029,4.60082,2470.693,2022-12-03T15:25:51Z
2022-12-03T13:26:54Z,42.805,6.029,13.3021,4.60073,2470.693,2022-12-03T15:28:54Z
2022-12-03T13:29:57Z,42.805,6.029,13.3022,4.60080,2470.73,2022-12-03T15:31:57Z
2022-12-03T13:33:01Z,42.805,6.029,13.3022,4.60074,2470.707,2022-12-03T15:35:00Z
2022-12-03T13:36:04Z,42.805,6.029,13.3021,4.60077,2470.693,2022-12-03T15:38:03Z
2022-12-03T13:39:07Z,42.805,6.029,13.3023,4.60073,2470.693,2022-12-03T15:41:07Z
2022-12-03T13:42:10Z,42.805,6.029,13.3020,4.60072,2470.73,2022-12-03T15:44:10Z
2022-12-03T13:45:13Z,42.805,6.029,13.3023,4.60074,2470.717,2022-12-03T15:47:13Z
2022-12-03T13:48:16Z,42.805,6.029,13.3018,4.60073,2470.73,2022-12-03T15:50:16Z
2022-12-03T13:51:19Z,42.805,6.029,13.3021,4.60072,2470.707,2022-12-03T15:53:19Z
2022-12-03T13:54:22Z,42.805,6.029,13.3018,4.60072,2470.717,2022-12-03T15:56:22Z
2022-12-03T13:57:25Z,42.805,6.029,13.3021,4.60077,2470.73,2022-12-03T15:59:25Z
2022-12-03T14:00:28Z,42.805,6.029,13.3022,4.60071,2470.74,2022-12-03T16:02:28Z
2022-12-03T14:03:31Z,42.805,6.029,13.3023,4.60077,2470.717,2022-12-03T16:05:31Z
2022-12-03T14:06:34Z,42.805,6.029,13.3020,4.60072,2470.717,2022-12-03T16:08:34Z
2022-12-03T14:09:38Z,42.805,6.029,13.3024,4.60077,2470.717,2022-12-03T16:11:37Z
2022-12-03T14:12:41Z,42.805,6.029,13.3024,4.60081,2470.717,2022-12-03T16:14:40Z
2022-12-03T14:15:44Z,42.805,6.029,13.3020,4.60074,2470.754,2022-12-03T16:17:43Z
2022-12-03T14:18:47Z,42.805,6.029,13.3018,4.60077,2470.74,2022-12-03T16:20:47Z
2022-12-03T14:21:50Z,42.805,6.029,13.3021,4.60074,2470.73,2022-12-03T16:23:50Z
2022-12-03T14:24:53Z,42.805,6.029,13.3020,4.60072,2470.717,2022-12-03T16:26:53Z
2022-12-03T14:27:56Z,42.805,6.029,13.3016,4.60074,2470.73,2022-12-03T16:29:56Z
2022-12-03T14:30:59Z,42.805,6.029,13.3023,4.60085,2470.73,2022-12-03T16:32:59Z
2022-12-03T14:34:02Z,42.805,6.029,13.3019,4.60069,2470.74,2022-12-03T16:36:02Z
2022-12-03T14:37:05Z,42.805,6.029,13.3021,4.60072,2470.74,2022-12-03T16:39:05Z
2022-12-03T14:40:08Z,42.805,6.029,13.3023,4.60073,2470.754,2022-12-03T16:42:08Z
2022-12-03T14:43:11Z,42.805,6.029,13.3021,4.60073,2470.74,2022-12-03T16:45:11Z
2022-12-03T14:46:14Z,42.805,6.029,13.3021,4.60077,2470.74,2022-12-03T16:48:14Z
2022-12-03T14:49:17Z,42.805,6.029,13.3020,4.60074,2470.74,2022-12-03T16:51:17Z
2022-12-03T14:52:21Z,42.805,6.029,13.3021,4.60078,2470.74,2022-12-03T16:54:20Z
2022-12-03T14:55:24Z,42.805,6.029,13.3021,4.60075,2470.74,2022-12-03T16:57:23Z
2022-12-03T14:58:27Z,42.805,6.029,13.3018,4.60077,2470.74,2022-12-03T17:00:26Z
2022-12-03T15:01:30Z,42.805,6.029,13.3018,4.60076,2470.787,2022-12-03T17:03:30Z